Time,TemperatureF,DewpointF,PressureIn,WindDirection,WindDirectionDegrees,WindSpeedMPH,WindSpeedGustMPH,Humidity,HourlyPrecipIn,Conditions,Clouds,dailyrainin,SolarRadiationWatts/m^2,SoftwareType,DateUTC
2013-09-13 00:03:00,69.1,50.0,30.01,NNW,344,0.0,0.0,51,0.00,,,0.00,0,Custom,2013-09-13 05:03:00,
2013-09-13 00:08:00,69.3,50.0,30.01,NNW,341,0.0,0.0,50,0.00,,,0.00,0,Custom,2013-09-13 05:08:00,
2013-09-13 00:13:00,69.4,49.0,30.01,NNW,343,0.0,0.0,49,0.00,,,0.00,0,Custom,2013-09-13 05:13:00,
2013-09-13 00:18:00,69.2,50.0,30.01,North,358,0.0,0.0,50,0.00,,,0.00,0,Custom,2013-09-13 05:18:00,
2013-09-13 00:23:00,68.9,49.0,30.01,NNW,345,0.0,0.0,50,0.00,,,0.00,0,Custom,2013-09-13 05:23:00,
2013-09-13 00:28:00,69.0,49.0,30.01,NNW,345,0.0,0.0,49,0.00,,,0.00,0,Custom,2013-09-13 05:28:00,
2013-09-13 00:33:00,68.7,49.0,30.01,NNW,346,0.0,0.0,50,0.00,,,0.00,0,Custom,2013-09-13 05:33:00,
2013-09-13 00:38:00,68.6,49.0,30.01,NNW,346,0.0,0.0,50,0.00,,,0.00,0,Custom,2013-09-13 05:38:00,
2013-09-13 00:43:00,68.2,49.0,30.01,NNW,344,0.0,0.0,50,0.00,,,0.00,0,Custom,2013-09-13 05:43:00,
2013-09-13 00:48:00,68.2,49.0,30.01,NNW,340,0.0,0.0,51,0.00,,,0.00,0,Custom,2013-09-13 05:48:00,
2013-09-13 00:53:00,68.1,49.0,30.01,NNW,345,0.0,0.0,51,0.00,,,0.00,0,Custom,2013-09-13 05:53:00,
2013-09-13 00:58:00,68.0,49.0,30.01,NNW,345,0.0,0.0,51,0.00,,,0.00,0,Custom,2013-09-13 05:58:00,
2013-09-13 01:03:00,67.7,49.0,30.01,NNW,343,0.0,0.0,51,0.00,,,0.00,0,Custom,2013-09-13 06:03:00,
2013-09-13 01:08:00,67.7,49.0,30.01,NNW,347,0.0,0.0,51,0.00,,,0.00,0,Custom,2013-09-13 06:08:00,
2013-09-13 01:13:00,67.6,49.0,30.01,NNW,348,0.0,0.0,52,0.00,,,0.00,0,Custom,2013-09-13 06:13:00,
2013-09-13 01:18:00,67.4,49.0,30.01,NNW,345,0.0,0.0,52,0.00,,,0.00,0,Custom,2013-09-13 06:18:00,
2013-09-13 01:23:00,67.7,50.0,30.01,NNW,346,0.0,0.0,52,0.00,,,0.00,0,Custom,2013-09-13 06:23:00,
2013-09-13 01:28:00,67.4,49.0,30.01,NNW,347,0.0,0.0,52,0.00,,,0.00,0,Custom,2013-09-13 06:28:00,
2013-09-13 01:33:00,67.2,49.0,30.01,NNW,348,0.0,0.0,53,0.00,,,0.00,0,Custom,2013-09-13 06:33:00,
2013-09-13 01:38:00,67.2,49.0,30.01,NNW,347,0.0,0.0,53,0.00,,,0.00,0,Custom,2013-09-13 06:38:00,
2013-09-13 01:43:00,67.0,49.0,30.01,NNW,347,0.0,0.0,52,0.00,,,0.00,0,Custom,2013-09-13 06:43:00,
2013-09-13 01:48:00,66.6,49.0,30.01,NNW,347,0.0,0.0,54,0.00,,,0.00,0,Custom,2013-09-13 06:48:00,
2013-09-13 01:53:00,66.7,49.0,30.01,NNW,347,0.0,0.0,54,0.00,,,0.00,0,Custom,2013-09-13 06:53:00,
2013-09-13 01:58:00,66.4,49.0,30.01,NNW,348,0.0,0.0,54,0.00,,,0.00,0,Custom,2013-09-13 06:58:00,
2013-09-13 02:03:00,66.1,49.0,30.01,North,349,0.0,0.0,55,0.00,,,0.00,0,Custom,2013-09-13 07:03:00,
2013-09-13 02:08:00,66.0,50.0,30.01,North,350,0.0,0.0,56,0.00,,,0.00,0,Custom,2013-09-13 07:08:00,
2013-09-13 02:13:00,65.9,50.0,30.01,North,360,0.0,0.0,56,0.00,,,0.00,0,Custom,2013-09-13 07:13:00,
2013-09-13 02:18:00,65.8,50.0,30.01,North,349,0.0,0.0,56,0.00,,,0.00,0,Custom,2013-09-13 07:18:00,
2013-09-13 02:23:00,65.9,49.0,30.01,NNW,346,0.0,0.0,55,0.00,,,0.00,0,Custom,2013-09-13 07:23:00,
2013-09-13 02:28:00,65.4,49.0,30.01,NNW,348,0.0,0.0,56,0.00,,,0.00,0,Custom,2013-09-13 07:28:00,
2013-09-13 02:33:00,65.4,49.0,30.01,NNW,347,0.0,0.0,56,0.00,,,0.00,0,Custom,2013-09-13 07:33:00,
2013-09-13 02:38:00,64.9,49.0,30.01,NNW,347,0.0,0.0,58,0.00,,,0.00,0,Custom,2013-09-13 07:38:00,
2013-09-13 02:43:00,64.6,50.0,30.01,North,349,0.0,0.0,58,0.00,,,0.00,0,Custom,2013-09-13 07:43:00,
2013-09-13 02:48:00,64.4,50.0,30.02,North,351,0.0,0.0,59,0.00,,,0.00,0,Custom,2013-09-13 07:48:00,
2013-09-13 02:53:00,63.8,50.0,30.02,North,350,0.0,0.0,60,0.00,,,0.00,0,Custom,2013-09-13 07:53:00,
2013-09-13 02:58:00,63.8,50.0,30.02,North,353,0.0,0.0,60,0.00,,,0.00,0,Custom,2013-09-13 07:58:00,
2013-09-13 03:03:00,63.5,50.0,30.02,North,351,0.0,0.0,60,0.00,,,0.00,0,Custom,2013-09-13 08:03:00,
2013-09-13 03:08:00,63.1,49.0,30.01,North,352,0.0,0.0,61,0.00,,,0.00,0,Custom,2013-09-13 08:08:00,
2013-09-13 03:13:00,62.9,50.0,30.01,North,353,0.0,0.0,62,0.00,,,0.00,0,Custom,2013-09-13 08:13:00,
2013-09-13 03:18:00,62.6,50.0,30.01,North,353,0.0,0.0,63,0.00,,,0.00,0,Custom,2013-09-13 08:18:00,
2013-09-13 03:23:00,62.3,50.0,30.01,North,356,0.0,0.0,64,0.00,,,0.00,0,Custom,2013-09-13 08:23:00,
2013-09-13 03:28:00,61.9,50.0,30.01,North,354,0.0,0.0,66,0.00,,,0.00,0,Custom,2013-09-13 08:28:00,
2013-09-13 03:33:00,61.7,50.0,30.01,North,354,0.0,0.0,65,0.00,,,0.00,0,Custom,2013-09-13 08:33:00,
2013-09-13 03:38:00,61.8,50.0,30.01,North,354,0.0,0.0,65,0.00,,,0.00,0,Custom,2013-09-13 08:38:00,
2013-09-13 03:43:00,62.1,50.0,30.01,North,353,0.0,0.0,65,0.00,,,0.00,0,Custom,2013-09-13 08:43:00,
2013-09-13 03:48:00,62.0,50.0,30.01,North,354,0.0,0.0,64,0.00,,,0.00,0,Custom,2013-09-13 08:48:00,
2013-09-13 03:53:00,62.0,50.0,30.01,North,353,0.0,0.0,65,0.00,,,0.00,0,Custom,2013-09-13 08:53:00,
2013-09-13 03:58:00,61.8,50.0,30.01,North,353,0.0,0.0,65,0.00,,,0.00,0,Custom,2013-09-13 08:58:00,
2013-09-13 04:03:00,61.3,50.0,30.01,North,351,0.0,0.0,65,0.00,,,0.00,0,Custom,2013-09-13 09:03:00,
2013-09-13 04:08:00,61.2,50.0,30.01,North,351,0.0,0.0,66,0.00,,,0.00,0,Custom,2013-09-13 09:08:00,
2013-09-13 04:13:00,60.8,50.0,30.01,NNW,345,0.0,0.0,67,0.00,,,0.00,0,Custom,2013-09-13 09:13:00,
2013-09-13 04:18:00,60.7,50.0,30.01,NNW,344,0.0,0.0,67,0.00,,,0.00,0,Custom,2013-09-13 09:18:00,
2013-09-13 04:23:00,60.4,50.0,30.01,NNW,343,0.0,0.0,68,0.00,,,0.00,0,Custom,2013-09-13 09:23:00,
2013-09-13 04:28:00,60.3,50.0,30.02,NNW,345,0.0,0.0,68,0.00,,,0.00,0,Custom,2013-09-13 09:28:00,
2013-09-13 04:33:00,60.3,50.0,30.02,NNW,346,0.0,0.0,68,0.00,,,0.00,0,Custom,2013-09-13 09:33:00,
2013-09-13 04:38:00,59.7,49.0,30.02,NNW,344,0.0,0.0,69,0.00,,,0.00,0,Custom,2013-09-13 09:38:00,
2013-09-13 04:43:00,59.5,50.0,30.02,NNW,343,0.0,0.0,70,0.00,,,0.00,0,Custom,2013-09-13 09:43:00,
2013-09-13 04:48:00,59.3,50.0,30.02,NNW,348,0.0,0.0,71,0.00,,,0.00,0,Custom,2013-09-13 09:48:00,
2013-09-13 04:53:00,59.3,50.0,30.02,North,349,0.0,0.0,70,0.00,,,0.00,0,Custom,2013-09-13 09:53:00,
2013-09-13 04:58:00,59.2,50.0,30.02,NNW,348,0.0,0.0,71,0.00,,,0.00,0,Custom,2013-09-13 09:58:00,
2013-09-13 05:03:00,58.6,49.0,30.02,North,349,0.0,0.0,72,0.00,,,0.00,0,Custom,2013-09-13 10:03:00,
2013-09-13 05:08:00,58.3,49.0,30.03,NNW,346,0.0,0.0,72,0.00,,,0.00,0,Custom,2013-09-13 10:08:00,
2013-09-13 05:13:00,58.2,50.0,30.03,NNW,345,0.0,0.0,73,0.00,,,0.00,0,Custom,2013-09-13 10:13:00,
2013-09-13 05:18:00,58.0,49.0,30.03,NNW,347,0.0,0.0,73,0.00,,,0.00,0,Custom,2013-09-13 10:18:00,
2013-09-13 05:23:00,57.5,49.0,30.03,NNW,347,0.0,0.0,75,0.00,,,0.00,0,Custom,2013-09-13 10:23:00,
2013-09-13 05:28:00,57.1,50.0,30.03,NNW,346,0.0,0.0,76,0.00,,,0.00,0,Custom,2013-09-13 10:28:00,
2013-09-13 05:33:00,57.0,50.0,30.03,NNW,346,0.0,0.0,77,0.00,,,0.00,0,Custom,2013-09-13 10:33:00,
2013-09-13 05:38:00,57.0,50.0,30.04,NNW,346,0.0,0.0,77,0.00,,,0.00,0,Custom,2013-09-13 10:38:00,
2013-09-13 05:43:00,57.0,50.0,30.03,NNW,345,0.0,0.0,77,0.00,,,0.00,0,Custom,2013-09-13 10:43:00,
2013-09-13 05:48:00,56.5,50.0,30.03,NNW,345,0.0,0.0,78,0.00,,,0.00,0,Custom,2013-09-13 10:48:00,
2013-09-13 05:53:00,56.2,49.0,30.03,NNW,345,0.0,0.0,78,0.00,,,0.00,0,Custom,2013-09-13 10:53:00,
2013-09-13 05:58:00,55.8,49.0,30.03,NNW,345,0.0,0.0,78,0.00,,,0.00,0,Custom,2013-09-13 10:58:00,
2013-09-13 06:03:00,55.3,49.0,30.04,NNW,345,0.0,0.0,79,0.00,,,0.00,0,Custom,2013-09-13 11:03:00,
2013-09-13 06:08:00,55.1,49.0,30.04,NNW,344,0.0,0.0,81,0.00,,,0.00,0,Custom,2013-09-13 11:08:00,
2013-09-13 06:13:00,55.1,49.0,30.04,NNW,344,0.0,0.0,81,0.00,,,0.00,0,Custom,2013-09-13 11:13:00,
2013-09-13 06:18:00,54.9,50.0,30.04,NNW,344,0.0,0.0,82,0.00,,,0.00,0,Custom,2013-09-13 11:18:00,
2013-09-13 06:23:00,55.0,50.0,30.04,NNW,344,0.0,0.0,82,0.00,,,0.00,0,Custom,2013-09-13 11:23:00,
2013-09-13 06:28:00,54.8,50.0,30.04,NNW,344,0.0,0.0,82,0.00,,,0.00,0,Custom,2013-09-13 11:28:00,
2013-09-13 06:33:00,54.9,50.0,30.05,NNW,343,0.0,0.0,83,0.00,,,0.00,0,Custom,2013-09-13 11:33:00,
2013-09-13 06:38:00,54.8,50.0,30.05,NNW,344,0.0,0.0,83,0.00,,,0.00,0,Custom,2013-09-13 11:38:00,
2013-09-13 06:43:00,54.7,50.0,30.05,NNW,343,0.0,0.0,83,0.00,,,0.00,0,Custom,2013-09-13 11:43:00,
2013-09-13 06:48:00,54.8,50.0,30.05,NNW,343,0.0,0.0,84,0.00,,,0.00,0,Custom,2013-09-13 11:48:00,
2013-09-13 06:53:00,54.8,50.0,30.05,NNW,343,0.0,0.0,84,0.00,,,0.00,0,Custom,2013-09-13 11:53:00,
2013-09-13 06:58:00,54.9,50.0,30.04,NNW,343,0.0,0.0,84,0.00,,,0.00,0,Custom,2013-09-13 11:58:00,
2013-09-13 07:03:00,55.0,50.0,30.05,NNW,343,0.0,0.0,84,0.00,,,0.00,8.58,Custom,2013-09-13 12:03:00,
2013-09-13 07:08:00,55.0,50.0,30.05,NNW,342,0.0,0.0,84,0.00,,,0.00,15.6,Custom,2013-09-13 12:08:00,
2013-09-13 07:13:00,55.1,50.0,30.05,NNW,343,0.0,0.0,84,0.00,,,0.00,21.06,Custom,2013-09-13 12:13:00,
2013-09-13 07:18:00,55.2,50.0,30.05,NNW,342,0.0,0.0,84,0.00,,,0.00,21.45,Custom,2013-09-13 12:18:00,
2013-09-13 07:23:00,55.5,51.0,30.04,NNW,342,0.0,0.0,83,0.00,,,0.00,32.76,Custom,2013-09-13 12:23:00,
2013-09-13 07:28:00,55.8,51.0,30.04,NNW,341,0.0,0.0,83,0.00,,,0.00,36.66,Custom,2013-09-13 12:28:00,
2013-09-13 07:33:00,56.3,51.0,30.04,NNW,341,0.0,0.0,83,0.00,,,0.00,39.39,Custom,2013-09-13 12:33:00,
2013-09-13 07:38:00,56.8,51.0,30.04,NNW,340,0.0,0.0,82,0.00,,,0.00,51.09,Custom,2013-09-13 12:38:00,
2013-09-13 07:43:00,57.3,51.0,30.04,NNW,335,0.0,0.0,81,0.00,,,0.00,58.5,Custom,2013-09-13 12:43:00,
2013-09-13 07:48:00,58.3,52.0,30.04,NNW,334,0.0,0.0,80,0.00,,,0.00,72.93,Custom,2013-09-13 12:48:00,
2013-09-13 07:53:00,60.7,53.0,30.04,NNW,335,0.0,0.0,76,0.00,,,0.00,86.58,Custom,2013-09-13 12:53:00,
2013-09-13 07:58:00,62.2,53.0,30.05,NNW,336,0.0,0.0,71,0.00,,,0.00,77.22,Custom,2013-09-13 12:58:00,
2013-09-13 08:03:00,63.3,52.0,30.05,NNW,333,0.0,0.0,67,0.00,,,0.00,75.27,Custom,2013-09-13 13:03:00,
2013-09-13 08:08:00,63.9,52.0,30.05,NNW,332,0.0,0.0,65,0.00,,,0.00,99.06,Custom,2013-09-13 13:08:00,
2013-09-13 08:13:00,64.4,52.0,30.04,NNW,331,0.0,0.0,63,0.00,,,0.00,122.46,Custom,2013-09-13 13:13:00,
2013-09-13 08:18:00,65.4,52.0,30.05,NNW,332,0.0,0.0,61,0.00,,,0.00,144.69,Custom,2013-09-13 13:18:00,
2013-09-13 08:23:00,64.3,50.0,30.05,NNW,327,0.0,0.0,60,0.00,,,0.00,109.59,Custom,2013-09-13 13:23:00,
2013-09-13 08:28:00,65.5,53.0,30.04,NNW,333,0.0,0.0,63,0.00,,,0.00,161.85,Custom,2013-09-13 13:28:00,
2013-09-13 08:33:00,65.3,52.0,30.05,NNW,332,0.0,0.0,62,0.00,,,0.00,187.2,Custom,2013-09-13 13:33:00,
2013-09-13 08:38:00,66.1,52.0,30.04,NW,326,0.0,0.0,60,0.00,,,0.00,225.03,Custom,2013-09-13 13:38:00,
2013-09-13 08:43:00,66.7,51.0,30.05,NW,326,0.0,0.0,58,0.00,,,0.00,273.78,Custom,2013-09-13 13:43:00,
2013-09-13 08:48:00,67.2,51.0,30.05,NW,326,0.0,0.0,57,0.00,,,0.00,251.55,Custom,2013-09-13 13:48:00,
2013-09-13 08:53:00,67.2,53.0,30.05,NW,326,0.0,0.0,59,0.00,,,0.00,316.29,Custom,2013-09-13 13:53:00,
2013-09-13 08:58:00,68.8,52.0,30.05,NW,326,0.0,0.0,55,0.00,,,0.00,333.84,Custom,2013-09-13 13:58:00,
2013-09-13 09:03:00,69.9,52.0,30.05,NW,323,0.0,0.0,53,0.00,,,0.00,421.98,Custom,2013-09-13 14:03:00,
2013-09-13 09:08:00,70.6,52.0,30.05,NW,322,0.0,0.0,52,0.00,,,0.00,290.94,Custom,2013-09-13 14:08:00,
2013-09-13 09:13:00,68.5,51.0,30.05,NW,325,0.0,0.0,54,0.00,,,0.00,187.59,Custom,2013-09-13 14:13:00,
2013-09-13 09:18:00,67.8,51.0,30.05,NW,325,0.0,0.0,55,0.00,,,0.00,323.31,Custom,2013-09-13 14:18:00,
2013-09-13 09:23:00,69.2,52.0,30.05,NW,324,0.0,0.0,54,0.00,,,0.00,342.81,Custom,2013-09-13 14:23:00,
2013-09-13 09:28:00,70.6,53.0,30.05,NNW,332,0.0,0.0,54,0.00,,,0.00,267.54,Custom,2013-09-13 14:28:00,
2013-09-13 09:33:00,69.6,52.0,30.05,NW,325,0.0,0.0,54,0.00,,,0.00,217.62,Custom,2013-09-13 14:33:00,
2013-09-13 09:38:00,69.4,52.0,30.05,NW,325,0.0,0.0,54,0.00,,,0.00,345.93,Custom,2013-09-13 14:38:00,
2013-09-13 09:43:00,68.8,52.0,30.05,NNW,328,0.0,0.0,55,0.00,,,0.00,292.89,Custom,2013-09-13 14:43:00,
2013-09-13 09:48:00,69.3,53.0,30.05,NNW,327,0.0,0.0,56,0.00,,,0.00,273.78,Custom,2013-09-13 14:48:00,
2013-09-13 09:53:00,69.1,52.0,30.05,NW,314,0.0,0.0,54,0.00,,,0.00,239.46,Custom,2013-09-13 14:53:00,
2013-09-13 09:58:00,69.3,52.0,30.05,NW,326,0.0,0.0,53,0.00,,,0.00,331.89,Custom,2013-09-13 14:58:00,
2013-09-13 10:03:00,71.7,55.0,30.05,NW,325,0.0,0.0,55,0.00,,,0.00,352.17,Custom,2013-09-13 15:03:00,
2013-09-13 10:08:00,71.0,53.0,30.05,NW,324,0.0,0.0,52,0.00,,,0.00,450.84,Custom,2013-09-13 15:08:00,
2013-09-13 10:13:00,72.3,54.0,30.05,NW,320,0.0,0.0,52,0.00,,,0.00,605.28,Custom,2013-09-13 15:13:00,
2013-09-13 10:18:00,72.8,53.0,30.05,NW,321,0.0,0.0,49,0.00,,,0.00,306.54,Custom,2013-09-13 15:18:00,
2013-09-13 10:23:00,72.2,52.0,30.05,NW,321,0.0,0.0,49,0.00,,,0.00,572.91,Custom,2013-09-13 15:23:00,
2013-09-13 10:28:00,74.8,54.0,30.05,NW,320,0.0,0.0,48,0.00,,,0.00,566.67,Custom,2013-09-13 15:28:00,
2013-09-13 10:33:00,73.7,52.0,30.05,NW,323,0.0,0.0,47,0.00,,,0.00,537.81,Custom,2013-09-13 15:33:00,
2013-09-13 10:38:00,74.1,51.0,30.05,NW,321,0.0,0.0,45,0.00,,,0.00,586.56,Custom,2013-09-13 15:38:00,
2013-09-13 10:43:00,74.7,53.0,30.05,NW,314,0.0,0.0,46,0.00,,,0.00,652.86,Custom,2013-09-13 15:43:00,
2013-09-13 10:48:00,76.5,53.0,30.05,NW,318,0.0,0.0,43,0.00,,,0.00,653.25,Custom,2013-09-13 15:48:00,
2013-09-13 10:53:00,75.3,51.0,30.05,NW,319,0.0,0.0,42,0.00,,,0.00,534.3,Custom,2013-09-13 15:53:00,
2013-09-13 10:58:00,75.7,51.0,30.05,NW,325,0.0,0.0,42,0.00,,,0.00,585.39,Custom,2013-09-13 15:58:00,
2013-09-13 11:03:00,73.3,50.0,30.05,NW,326,0.0,0.0,44,0.00,,,0.00,446.94,Custom,2013-09-13 16:03:00,
2013-09-13 11:08:00,74.8,53.0,30.05,NNW,334,0.0,0.0,46,0.00,,,0.00,589.68,Custom,2013-09-13 16:08:00,
2013-09-13 11:13:00,73.0,49.0,30.05,NNW,327,0.0,0.0,43,0.00,,,0.00,342.81,Custom,2013-09-13 16:13:00,
2013-09-13 11:18:00,74.6,50.0,30.05,NNW,332,0.0,0.0,42,0.00,,,0.00,642.72,Custom,2013-09-13 16:18:00,
2013-09-13 11:23:00,75.7,50.0,30.05,NNW,334,0.0,0.0,41,0.00,,,0.00,639.21,Custom,2013-09-13 16:23:00,
2013-09-13 11:28:00,74.8,51.0,30.05,NNW,333,0.0,0.0,43,0.00,,,0.00,639.21,Custom,2013-09-13 16:28:00,
2013-09-13 11:33:00,76.3,53.0,30.05,NNW,338,0.0,0.0,44,0.00,,,0.00,627.51,Custom,2013-09-13 16:33:00,
2013-09-13 11:38:00,76.3,51.0,30.05,NNW,338,0.0,0.0,41,0.00,,,0.00,638.82,Custom,2013-09-13 16:38:00,
2013-09-13 11:43:00,76.5,51.0,30.05,NNW,340,0.0,0.0,42,0.00,,,0.00,629.46,Custom,2013-09-13 16:43:00,
2013-09-13 11:48:00,76.9,52.0,30.05,NNW,343,0.0,0.0,41,0.00,,,0.00,639.99,Custom,2013-09-13 16:48:00,
2013-09-13 11:53:00,76.4,51.0,30.05,NNW,342,0.0,0.0,40,0.00,,,0.00,643.11,Custom,2013-09-13 16:53:00,
2013-09-13 11:58:00,75.4,51.0,30.05,North,360,0.0,0.0,43,0.00,,,0.00,501.15,Custom,2013-09-13 16:58:00,
2013-09-13 12:03:00,74.1,51.0,30.05,NNW,337,0.0,0.0,44,0.00,,,0.00,476.58,Custom,2013-09-13 17:03:00,
2013-09-13 12:08:00,76.1,54.0,30.04,NNW,334,0.0,0.0,46,0.00,,,0.00,621.66,Custom,2013-09-13 17:08:00,
2013-09-13 12:13:00,75.9,51.0,30.04,NNW,342,0.0,0.0,42,0.00,,,0.00,430.95,Custom,2013-09-13 17:13:00,
2013-09-13 12:18:00,76.2,51.0,30.04,NNW,342,0.0,0.0,41,0.00,,,0.00,632.58,Custom,2013-09-13 17:18:00,
2013-09-13 12:23:00,77.6,51.0,30.03,NNW,332,0.0,0.0,40,0.00,,,0.00,634.14,Custom,2013-09-13 17:23:00,
2013-09-13 12:28:00,76.7,51.0,30.04,NNW,345,0.0,0.0,40,0.00,,,0.00,630.63,Custom,2013-09-13 17:28:00,
2013-09-13 12:33:00,77.0,51.0,30.03,NNW,344,0.0,0.0,39,0.00,,,0.00,514.8,Custom,2013-09-13 17:33:00,
2013-09-13 12:38:00,76.0,51.0,30.03,NNW,340,0.0,0.0,42,0.00,,,0.00,567.45,Custom,2013-09-13 17:38:00,
2013-09-13 12:43:00,75.5,51.0,30.03,NNW,336,0.0,0.0,42,0.00,,,0.00,625.17,Custom,2013-09-13 17:43:00,
2013-09-13 12:48:00,77.2,51.0,30.03,NW,313,0.0,0.0,40,0.00,,,0.00,622.83,Custom,2013-09-13 17:48:00,
2013-09-13 12:53:00,77.4,51.0,30.03,NW,326,0.0,0.0,40,0.00,,,0.00,643.5,Custom,2013-09-13 17:53:00,
2013-09-13 12:58:00,76.1,51.0,30.02,NW,320,0.0,0.0,41,0.00,,,0.00,620.88,Custom,2013-09-13 17:58:00,
2013-09-13 13:03:00,76.4,53.0,30.02,NNW,330,0.0,0.0,44,0.00,,,0.00,527.67,Custom,2013-09-13 18:03:00,
2013-09-13 13:08:00,77.4,52.0,30.01,NNW,337,0.0,0.0,42,0.00,,,0.00,614.64,Custom,2013-09-13 18:08:00,
2013-09-13 13:13:00,77.6,51.0,30.02,NW,318,0.0,0.0,39,0.00,,,0.00,432.9,Custom,2013-09-13 18:13:00,
2013-09-13 13:18:00,77.2,53.0,30.02,North,356,0.0,0.0,42,0.00,,,0.00,258.18,Custom,2013-09-13 18:18:00,
2013-09-13 13:23:00,78.0,55.0,30.01,NW,322,0.0,0.0,45,0.00,,,0.00,617.76,Custom,2013-09-13 18:23:00,
2013-09-13 13:28:00,75.9,51.0,30.01,NNW,329,0.0,0.0,41,0.00,,,0.00,368.16,Custom,2013-09-13 18:28:00,
2013-09-13 13:33:00,75.4,51.0,30.01,NW,313,0.0,0.0,43,0.00,,,0.00,423.54,Custom,2013-09-13 18:33:00,
2013-09-13 13:38:00,76.1,52.0,30.01,WNW,299,0.0,0.0,42,0.00,,,0.00,632.58,Custom,2013-09-13 18:38:00,
2013-09-13 13:43:00,75.5,50.0,30.01,NW,312,0.0,0.0,41,0.00,,,0.00,509.73,Custom,2013-09-13 18:43:00,
2013-09-13 13:48:00,76.3,51.0,30.01,North,358,0.0,0.0,41,0.00,,,0.00,517.53,Custom,2013-09-13 18:48:00,
2013-09-13 13:53:00,78.0,51.0,30.01,NW,312,0.0,0.0,40,0.00,,,0.00,627.12,Custom,2013-09-13 18:53:00,
2013-09-13 13:58:00,76.6,50.0,30.01,NW,313,0.0,0.0,40,0.00,,,0.00,546,Custom,2013-09-13 18:58:00,
2013-09-13 14:03:00,78.1,51.0,30.01,WNW,303,0.0,0.0,38,0.00,,,0.00,524.16,Custom,2013-09-13 19:03:00,
2013-09-13 14:08:00,77.6,52.0,30.00,NW,318,0.0,0.0,41,0.00,,,0.00,532.35,Custom,2013-09-13 19:08:00,
2013-09-13 14:13:00,77.6,50.0,30.00,North,360,0.0,0.0,38,0.00,,,0.00,654.42,Custom,2013-09-13 19:13:00,
2013-09-13 14:18:00,79.1,51.0,30.00,NNW,328,0.0,0.0,38,0.00,,,0.00,628.29,Custom,2013-09-13 19:18:00,
2013-09-13 14:23:00,80.5,52.0,30.00,North,360,0.0,0.0,38,0.00,,,0.00,635.7,Custom,2013-09-13 19:23:00,
2013-09-13 14:28:00,79.7,51.0,29.99,NNW,342,0.0,0.0,37,0.00,,,0.00,631.8,Custom,2013-09-13 19:28:00,
2013-09-13 14:33:00,79.3,49.0,29.99,North,353,0.0,0.0,35,0.00,,,0.00,539.76,Custom,2013-09-13 19:33:00,
2013-09-13 14:38:00,78.6,51.0,29.99,North,354,0.0,0.0,38,0.00,,,0.00,317.07,Custom,2013-09-13 19:38:00,
2013-09-13 14:43:00,78.3,52.0,29.99,North,352,0.0,0.0,40,0.00,,,0.00,655.98,Custom,2013-09-13 19:43:00,
2013-09-13 14:48:00,77.7,51.0,29.99,North,349,0.0,0.0,39,0.00,,,0.00,560.82,Custom,2013-09-13 19:48:00,
2013-09-13 14:53:00,79.2,52.0,29.99,NNW,347,0.0,0.0,39,0.00,,,0.00,432.9,Custom,2013-09-13 19:53:00,
2013-09-13 14:58:00,79.2,50.0,29.99,NNW,346,0.0,0.0,36,0.00,,,0.00,572.13,Custom,2013-09-13 19:58:00,
2013-09-13 15:03:00,79.5,51.0,29.98,NNW,348,0.0,0.0,37,0.00,,,0.00,631.41,Custom,2013-09-13 20:03:00,
2013-09-13 15:08:00,79.5,51.0,29.98,NNW,345,0.0,0.0,37,0.00,,,0.00,620.49,Custom,2013-09-13 20:08:00,
2013-09-13 15:13:00,81.4,51.0,29.98,North,351,0.0,0.0,35,0.00,,,0.00,651.69,Custom,2013-09-13 20:13:00,
2013-09-13 15:18:00,80.7,51.0,29.98,North,349,0.0,0.0,36,0.00,,,0.00,577.98,Custom,2013-09-13 20:18:00,
2013-09-13 15:23:00,79.7,50.0,29.98,NNW,335,0.0,0.0,36,0.00,,,0.00,628.29,Custom,2013-09-13 20:23:00,
2013-09-13 15:28:00,79.8,50.0,29.97,NNW,329,0.0,0.0,35,0.00,,,0.00,530.01,Custom,2013-09-13 20:28:00,
2013-09-13 15:33:00,78.9,51.0,29.97,NNW,330,0.0,0.0,38,0.00,,,0.00,222.3,Custom,2013-09-13 20:33:00,
2013-09-13 15:38:00,79.1,51.0,29.97,NW,323,0.0,0.0,39,0.00,,,0.00,560.43,Custom,2013-09-13 20:38:00,
2013-09-13 15:43:00,80.7,53.0,29.96,NW,323,0.0,0.0,38,0.00,,,0.00,653.25,Custom,2013-09-13 20:43:00,
2013-09-13 15:48:00,79.9,52.0,29.96,NNW,327,0.0,0.0,38,0.00,,,0.00,413.79,Custom,2013-09-13 20:48:00,
2013-09-13 15:53:00,77.5,51.0,29.96,NNW,327,0.0,0.0,39,0.00,,,0.00,389.61,Custom,2013-09-13 20:53:00,
2013-09-13 15:58:00,78.1,52.0,29.96,NNW,327,0.0,0.0,40,0.00,,,0.00,233.22,Custom,2013-09-13 20:58:00,
2013-09-13 16:03:00,77.1,51.0,29.96,NNW,328,0.0,0.0,40,0.00,,,0.00,287.43,Custom,2013-09-13 21:03:00,
2013-09-13 16:08:00,79.1,53.0,29.96,NNW,327,0.0,0.0,40,0.00,,,0.00,400.92,Custom,2013-09-13 21:08:00,
2013-09-13 16:13:00,78.8,52.0,29.96,NW,325,0.0,0.0,39,0.00,,,0.00,475.41,Custom,2013-09-13 21:13:00,
2013-09-13 16:18:00,78.2,52.0,29.96,NNW,328,0.0,0.0,40,0.00,,,0.00,285.09,Custom,2013-09-13 21:18:00,
2013-09-13 16:23:00,76.4,50.0,29.96,NNW,328,0.0,0.0,40,0.00,,,0.00,255.06,Custom,2013-09-13 21:23:00,
2013-09-13 16:28:00,76.4,51.0,29.96,NW,321,0.0,0.0,41,0.00,,,0.00,218.01,Custom,2013-09-13 21:28:00,
2013-09-13 16:33:00,75.6,51.0,29.96,NW,315,0.0,0.0,42,0.00,,,0.00,143.91,Custom,2013-09-13 21:33:00,
2013-09-13 16:38:00,75.4,51.0,29.96,NW,324,0.0,0.0,43,0.00,,,0.00,175.11,Custom,2013-09-13 21:38:00,
2013-09-13 16:43:00,75.4,51.0,29.96,NW,325,0.0,0.0,43,0.00,,,0.00,184.86,Custom,2013-09-13 21:43:00,
2013-09-13 16:48:00,75.4,51.0,29.96,NW,316,0.0,0.0,43,0.00,,,0.00,156.78,Custom,2013-09-13 21:48:00,
2013-09-13 16:53:00,75.1,52.0,29.96,NW,317,0.0,0.0,44,0.00,,,0.00,175.11,Custom,2013-09-13 21:53:00,
2013-09-13 16:59:00,75.7,52.0,29.96,NW,323,0.0,0.0,44,0.00,,,0.00,111.93,Custom,2013-09-13 21:59:00,
2013-09-13 17:04:00,76.1,51.0,29.96,NW,314,0.0,0.0,42,0.00,,,0.00,132.99,Custom,2013-09-13 22:04:00,
2013-09-13 17:09:00,75.7,52.0,29.96,NW,316,0.0,0.0,43,0.00,,,0.00,118.56,Custom,2013-09-13 22:09:00,
2013-09-13 17:14:00,74.7,51.0,29.96,NW,315,0.0,0.0,43,0.00,,,0.00,81.9,Custom,2013-09-13 22:14:00,
2013-09-13 17:19:00,74.5,51.0,29.96,NW,314,0.0,0.0,44,0.00,,,0.00,69.81,Custom,2013-09-13 22:19:00,
2013-09-13 17:24:00,74.2,51.0,29.96,WNW,303,0.0,0.0,44,0.00,,,0.00,61.23,Custom,2013-09-13 22:24:00,
2013-09-13 17:29:00,74.1,51.0,29.95,NW,313,0.0,0.0,44,0.00,,,0.00,56.55,Custom,2013-09-13 22:29:00,
2013-09-13 17:34:00,74.1,52.0,29.96,NW,313,0.0,0.0,45,0.00,,,0.00,45.63,Custom,2013-09-13 22:34:00,
2013-09-13 17:39:00,73.6,51.0,29.96,NW,311,0.0,0.0,44,0.00,,,0.00,40.95,Custom,2013-09-13 22:39:00,
2013-09-13 17:44:00,73.5,51.0,29.96,NW,312,0.0,0.0,45,0.00,,,0.00,36.27,Custom,2013-09-13 22:44:00,
2013-09-13 17:49:00,73.2,50.0,29.95,NW,306,0.0,0.0,44,0.00,,,0.00,37.05,Custom,2013-09-13 22:49:00,
2013-09-13 17:54:00,72.8,49.0,29.95,NW,309,0.0,0.0,43,0.00,,,0.00,42.9,Custom,2013-09-13 22:54:00,
2013-09-13 17:59:00,72.8,50.0,29.95,NW,304,0.0,0.0,45,0.00,,,0.00,37.44,Custom,2013-09-13 22:59:00,
2013-09-13 18:04:00,72.6,50.0,29.95,NW,308,0.0,0.0,44,0.00,,,0.00,37.44,Custom,2013-09-13 23:04:00,
2013-09-13 18:09:00,72.7,50.0,29.95,NW,308,0.0,0.0,45,0.00,,,0.00,42.9,Custom,2013-09-13 23:09:00,
2013-09-13 18:14:00,72.9,51.0,29.95,NW,304,0.0,0.0,46,0.00,,,0.00,37.05,Custom,2013-09-13 23:14:00,
2013-09-13 18:19:00,72.7,51.0,29.95,NW,311,0.0,0.0,47,0.00,,,0.00,38.61,Custom,2013-09-13 23:19:00,
2013-09-13 18:24:00,72.3,51.0,29.95,NW,309,0.0,0.0,47,0.00,,,0.00,35.1,Custom,2013-09-13 23:24:00,
2013-09-13 18:29:00,72.3,50.0,29.94,NW,310,0.0,0.0,45,0.00,,,0.00,28.86,Custom,2013-09-13 23:29:00,
2013-09-13 18:34:00,71.9,50.0,29.95,NW,310,0.0,0.0,46,0.00,,,0.00,20.28,Custom,2013-09-13 23:34:00,
2013-09-13 18:39:00,71.1,50.0,29.95,NW,308,0.0,0.0,48,0.00,,,0.00,16.38,Custom,2013-09-13 23:39:00,
2013-09-13 18:44:00,70.7,50.0,29.94,NW,308,0.0,0.0,48,0.00,,,0.00,17.94,Custom,2013-09-13 23:44:00,
2013-09-13 18:49:00,70.4,50.0,29.94,NW,311,0.0,0.0,49,0.00,,,0.00,19.5,Custom,2013-09-13 23:49:00,
2013-09-13 18:54:00,70.2,51.0,29.94,NW,309,0.0,0.0,50,0.00,,,0.00,21.06,Custom,2013-09-13 23:54:00,
2013-09-13 18:59:00,70.2,51.0,29.94,NW,310,0.0,0.0,51,0.00,,,0.00,21.06,Custom,2013-09-13 23:59:00,
2013-09-13 19:04:00,69.7,51.0,29.94,NW,309,0.0,0.0,52,0.00,,,0.00,19.5,Custom,2013-09-14 00:04:00,
2013-09-13 19:09:00,69.2,51.0,29.94,NW,309,0.0,0.0,52,0.00,,,0.00,16.38,Custom,2013-09-14 00:09:00,
2013-09-13 19:14:00,68.7,51.0,29.94,NW,311,0.0,0.0,54,0.00,,,0.00,14.43,Custom,2013-09-14 00:14:00,
2013-09-13 19:19:00,67.9,51.0,29.94,NW,310,0.0,0.0,54,0.00,,,0.00,11.31,Custom,2013-09-14 00:19:00,
2013-09-13 19:24:00,67.6,51.0,29.94,NW,311,0.0,0.0,55,0.00,,,0.00,8.58,Custom,2013-09-14 00:24:00,
2013-09-13 19:29:00,67.5,51.0,29.94,NW,304,0.0,0.0,55,0.00,,,0.00,0,Custom,2013-09-14 00:29:00,
2013-09-13 19:34:00,66.7,51.0,29.94,NW,306,0.0,0.0,58,0.00,,,0.00,0,Custom,2013-09-14 00:34:00,
2013-09-13 19:39:00,65.9,52.0,29.94,NW,307,0.0,0.0,60,0.00,,,0.00,0,Custom,2013-09-14 00:39:00,
2013-09-13 19:44:00,65.1,51.0,29.94,NW,307,0.0,0.0,59,0.00,,,0.00,0,Custom,2013-09-14 00:44:00,
2013-09-13 19:49:00,64.3,51.0,29.94,NW,311,0.0,0.0,62,0.00,,,0.00,0,Custom,2013-09-14 00:49:00,
2013-09-13 19:54:00,63.7,51.0,29.94,NNW,331,0.0,0.0,63,0.00,,,0.00,0,Custom,2013-09-14 00:54:00,
2013-09-13 19:59:00,63.3,51.0,29.95,NNW,338,0.0,0.0,64,0.00,,,0.00,0,Custom,2013-09-14 00:59:00,
2013-09-13 20:04:00,62.8,51.0,29.95,NNW,346,0.0,0.0,65,0.00,,,0.00,0,Custom,2013-09-14 01:04:00,
2013-09-13 20:09:00,62.5,51.0,29.95,NNW,332,0.0,0.0,66,0.00,,,0.00,0,Custom,2013-09-14 01:09:00,
2013-09-13 20:14:00,62.1,51.0,29.95,NNW,330,0.0,0.0,67,0.00,,,0.00,0,Custom,2013-09-14 01:14:00,
2013-09-13 20:19:00,61.8,51.0,29.95,NW,324,0.0,0.0,67,0.00,,,0.00,0,Custom,2013-09-14 01:19:00,
2013-09-13 20:24:00,61.6,51.0,29.95,NNW,339,0.0,0.0,67,0.00,,,0.00,0,Custom,2013-09-14 01:24:00,
2013-09-13 20:29:00,61.3,51.0,29.95,NNW,329,0.0,0.0,68,0.00,,,0.00,0,Custom,2013-09-14 01:29:00,
2013-09-13 20:34:00,61.3,50.0,29.95,NNW,330,0.0,0.0,67,0.00,,,0.00,0,Custom,2013-09-14 01:34:00,
2013-09-13 20:39:00,61.1,51.0,29.96,North,351,0.0,0.0,69,0.00,,,0.00,0,Custom,2013-09-14 01:39:00,
2013-09-13 20:44:00,61.0,51.0,29.95,North,351,0.0,0.0,68,0.00,,,0.00,0,Custom,2013-09-14 01:44:00,
2013-09-13 20:49:00,61.0,51.0,29.95,NNW,329,0.0,0.0,68,0.00,,,0.00,0,Custom,2013-09-14 01:49:00,
2013-09-13 20:54:00,60.8,51.0,29.96,NNW,330,0.0,0.0,69,0.00,,,0.00,0,Custom,2013-09-14 01:54:00,
2013-09-13 20:59:00,60.7,50.0,29.96,NNW,334,0.0,0.0,69,0.00,,,0.00,0,Custom,2013-09-14 01:59:00,
2013-09-13 21:04:00,60.3,50.0,29.96,NNW,331,0.0,0.0,69,0.00,,,0.00,0,Custom,2013-09-14 02:04:00,
2013-09-13 21:09:00,60.1,50.0,29.96,NNW,337,0.0,0.0,70,0.00,,,0.00,0,Custom,2013-09-14 02:09:00,
2013-09-13 21:14:00,60.0,50.0,29.96,NNW,330,0.0,0.0,71,0.00,,,0.00,0,Custom,2013-09-14 02:14:00,
2013-09-13 21:19:00,59.9,50.0,29.96,NNW,338,0.0,0.0,71,0.00,,,0.00,0,Custom,2013-09-14 02:19:00,
2013-09-13 21:24:00,59.7,50.0,29.96,North,354,0.0,0.0,70,0.00,,,0.00,0,Custom,2013-09-14 02:24:00,
2013-09-13 21:29:00,60.0,50.0,29.96,North,353,0.0,0.0,69,0.00,,,0.00,0,Custom,2013-09-14 02:29:00,
2013-09-13 21:34:00,59.9,50.0,29.96,North,350,0.0,0.0,70,0.00,,,0.00,0,Custom,2013-09-14 02:34:00,
2013-09-13 21:39:00,59.8,50.0,29.96,NNW,344,0.0,0.0,70,0.00,,,0.00,0,Custom,2013-09-14 02:39:00,
2013-09-13 21:44:00,59.5,50.0,29.96,NNW,339,0.0,0.0,71,0.00,,,0.00,0,Custom,2013-09-14 02:44:00,
2013-09-13 21:49:00,59.2,50.0,29.96,NNW,347,0.0,0.0,71,0.00,,,0.00,0,Custom,2013-09-14 02:49:00,
2013-09-13 21:54:00,59.0,50.0,29.96,NNW,348,0.0,0.0,71,0.00,,,0.00,0,Custom,2013-09-14 02:54:00,
2013-09-13 21:59:00,59.0,50.0,29.96,NNW,344,0.0,0.0,72,0.00,,,0.00,0,Custom,2013-09-14 02:59:00,
2013-09-13 22:04:00,58.8,50.0,29.96,North,352,0.0,0.0,72,0.00,,,0.00,0,Custom,2013-09-14 03:04:00,
2013-09-13 22:09:00,58.3,50.0,29.96,North,351,0.0,0.0,73,0.00,,,0.00,0,Custom,2013-09-14 03:09:00,
2013-09-13 22:14:00,58.3,50.0,29.96,North,352,0.0,0.0,74,0.00,,,0.00,0,Custom,2013-09-14 03:14:00,
2013-09-13 22:19:00,57.7,50.0,29.96,NNW,334,0.0,0.0,74,0.00,,,0.00,0,Custom,2013-09-14 03:19:00,
2013-09-13 22:24:00,57.7,50.0,29.96,NNW,337,0.0,0.0,75,0.00,,,0.00,0,Custom,2013-09-14 03:24:00,
2013-09-13 22:29:00,57.5,50.0,29.96,NNW,338,0.0,0.0,76,0.00,,,0.00,0,Custom,2013-09-14 03:29:00,
2013-09-13 22:34:00,57.3,50.0,29.96,NNW,331,0.0,0.0,77,0.00,,,0.00,0,Custom,2013-09-14 03:34:00,
2013-09-13 22:39:00,57.0,50.0,29.95,NNW,328,0.0,0.0,76,0.00,,,0.00,0,Custom,2013-09-14 03:39:00,
2013-09-13 22:44:00,56.5,50.0,29.96,NNW,342,0.0,0.0,77,0.00,,,0.00,0,Custom,2013-09-14 03:44:00,
2013-09-13 22:49:00,56.4,50.0,29.96,NW,314,0.0,0.0,79,0.00,,,0.00,0,Custom,2013-09-14 03:49:00,
2013-09-13 22:54:00,56.4,50.0,29.96,NNW,329,0.0,0.0,80,0.00,,,0.00,0,Custom,2013-09-14 03:54:00,
2013-09-13 22:59:00,56.4,50.0,29.95,NNW,333,0.0,0.0,79,0.00,,,0.00,0,Custom,2013-09-14 03:59:00,
2013-09-13 23:01:00,56.5,50.0,29.95,NNW,334,0.0,0.0,79,0.00,,,0.00,0,Custom,2013-09-14 04:01:00,
2013-09-13 23:02:00,56.5,50.0,29.95,NNW,334,0.0,0.0,79,0.00,,,0.00,0,Custom,2013-09-14 04:02:00,
2013-09-13 23:04:00,56.5,50.0,29.95,NNW,333,0.0,0.0,79,0.00,,,0.00,0,Custom,2013-09-14 04:04:00,
2013-09-13 23:09:00,56.5,50.0,29.95,NNW,333,0.0,0.0,78,0.00,,,0.00,0,Custom,2013-09-14 04:09:00,
2013-09-13 23:10:00,56.5,50.0,29.96,NNW,332,0.0,0.0,78,0.00,,,0.00,0,Custom,2013-09-14 04:10:00,
2013-09-13 23:15:00,56.5,50.0,29.96,NNW,332,0.0,0.0,79,0.00,,,0.00,0,Custom,2013-09-14 04:15:00,
2013-09-13 23:20:00,56.4,50.0,29.95,NNW,331,0.0,0.0,78,0.00,,,0.00,0,Custom,2013-09-14 04:20:00,
2013-09-13 23:25:00,56.5,50.0,29.96,NNW,331,0.0,0.0,79,0.00,,,0.00,0,Custom,2013-09-14 04:25:00,
2013-09-13 23:30:00,56.5,50.0,29.95,NNW,331,0.0,0.0,78,0.00,,,0.00,0,Custom,2013-09-14 04:30:00,
2013-09-13 23:35:00,56.6,50.0,29.96,NNW,332,0.0,0.0,78,0.00,,,0.00,0,Custom,2013-09-14 04:35:00,
2013-09-13 23:40:00,56.6,50.0,29.95,NNW,331,0.0,0.0,77,0.00,,,0.00,0,Custom,2013-09-14 04:40:00,
2013-09-13 23:45:00,57.0,50.0,29.95,NNW,331,0.0,0.0,77,0.00,,,0.00,0,Custom,2013-09-14 04:45:00,
2013-09-13 23:50:00,57.0,50.0,29.95,NNW,331,0.0,0.0,77,0.00,,,0.00,0,Custom,2013-09-14 04:50:00,
2013-09-13 23:55:00,57.0,50.0,29.96,NNW,330,0.0,0.0,77,0.00,,,0.00,0,Custom,2013-09-14 04:55:00,